QPF
0.00 0.00 0.00 0.00 0.00 0.00 0.00 0.00 0.00 0.00 0.00 0.00 0.00 0.00 0.00 0.00 0.00 0.00 0.00 0.00 0.01 0.01 0.01 0.02 0.01 0.02 0.03 0.03 0.01 0.01 0.02 0.02 0.03 0.03 0.02 0.02 0.03 0.03 0.05 0.04 0.02 0.01 0.02
0.00 0.00 0.00 0.00 0.00 0.00 0.00 0.00 0.00 0.00 0.00 0.00 0.00 0.00 0.00 0.00 0.00 0.00 0.01 0.01 0.01 0.01 0.01 0.01 0.01 0.01 0.02 0.01 0.01 0.01 0.02 0.03 0.03 0.03 0.02 0.01 0.03 0.04 0.04 0.04 0.02 0.01 0.02
0.00 0.00 0.00 0.00 0.00 0.00 0.00 0.00 0.00 0.00 0.00 0.00 0.00 0.00 0.00 0.00 0.00 0.01 0.01 0.01 0.01 0.01 0.01 0.01 0.01 0.01 0.01 0.01 0.01 0.02 0.04 0.04 0.05 0.06 0.04 0.00 0.02 0.04 0.03 0.03 0.02 0.01 0.01
0.00 0.00 0.00 0.00 0.00 0.00 0.00 0.00 0.00 0.00 0.00 0.00 0.00 0.00 0.00 0.00 0.01 0.01 0.01 0.01 0.01 0.01 0.01 0.01 0.01 0.01 0.01 0.01 0.02 0.03 0.04 0.06 0.07 0.08 0.04 0.01 0.00 0.01 0.01 0.01 0.01 0.01 0.01
0.00 0.00 0.00 0.00 0.00 0.00 0.00 0.00 0.00 0.00 0.00 0.00 0.00 0.00 0.01 0.01 0.01 0.01 0.01 0.01 0.01 0.01 0.01 0.01 0.01 0.01 0.01 0.01 0.02 0.03 0.04 0.07 0.11 0.12 0.05 0.02 0.00 0.01 0.01 0.01 0.01 0.01 0.01
0.00 0.00 0.00 0.00 0.00 0.00 0.00 0.00 0.00 0.00 0.00 0.00 0.00 0.01 0.01 0.01 0.01 0.01 0.01 0.01 0.01 0.01 0.01 0.01 0.01 0.01 0.01 0.01 0.02 0.03 0.05 0.09 0.10 0.07 0.03 0.01 0.01 0.01 0.01 0.01 0.01 0.01 0.01
0.00 0.00 0.00 0.00 0.00 0.00 0.00 0.00 0.00 0.00 0.00 0.00 0.01 0.01 0.01 0.01 0.01 0.01 0.01 0.01 0.01 0.01 0.01 0.01 0.01 0.01 0.01 0.02 0.03 0.03 0.06 0.11 0.08 0.06 0.04 0.02 0.01 0.01 0.01 0.00 0.01 0.01 0.01
0.00 0.00 0.00 0.00 0.00 0.00 0.00 0.00 0.00 0.00 0.00 0.01 0.01 0.01 0.01 0.01 0.01 0.01 0.01 0.01 0.01 0.01 0.01 0.01 0.01 0.01 0.01 0.02 0.03 0.03 0.04 0.08 0.10 0.08 0.04 0.02 0.01 0.01 0.01 0.00 0.00 0.00 0.01
0.02 0.01 0.00 0.00 0.00 0.00 0.00 0.00 0.00 0.00 0.00 0.01 0.01 0.01 0.01 0.00 0.01 0.01 0.01 0.01 0.00 0.00 0.00 0.01 0.01 0.01 0.01 0.02 0.03 0.03 0.05 0.08 0.11 0.09 0.03 0.01 0.01 0.01 0.01 0.00 0.00 0.00 0.00
0.05 0.02 0.00 0.00 0.00 0.00 0.00 0.00 0.00 0.00 0.00 0.00 0.00 0.01 0.00 0.00 0.00 0.00 0.01 0.01 0.01 0.01 0.01 0.01 0.00 0.00 0.01 0.02 0.03 0.04 0.06 0.09 0.14 0.12 0.04 0.01 0.01 0.01 0.01 0.00 0.00 0.00 0.00
0.07 0.05 0.02 0.01 0.01 0.00 0.00 0.00 0.01 0.01 0.01 0.00 0.00 0.01 0.00 0.00 0.00 0.00 0.00 0.01 0.01 0.02 0.01 0.01 0.00 0.01 0.01 0.02 0.03 0.04 0.07 0.12 0.20 0.19 0.05 0.02 0.01 0.01 0.00 0.00 0.00 0.00 0.00
0.11 0.10 0.08 0.06 0.03 0.01 0.00 0.01 0.00 0.00 0.00 0.00 0.00 0.00 0.00 0.00 0.01 0.01 0.01 0.01 0.01 0.01 0.01 0.02 0.02 0.01 0.01 0.02 0.03 0.06 0.11 0.17 0.23 0.12 0.04 0.04 0.03 0.01 0.01 0.00 0.00 0.00 0.00
0.11 0.13 0.15 0.12 0.08 0.04 0.02 0.02 0.01 0.00 0.00 0.00 0.00 0.00 0.01 0.01 0.01 0.01 0.00 0.00 0.00 0.00 0.00 0.01 0.01 0.02 0.03 0.06 0.08 0.11 0.13 0.17 0.30 0.16 0.05 0.04 0.03 0.01 0.01 0.01 0.01 0.01 0.00
0.09 0.11 0.15 0.15 0.14 0.10 0.05 0.04 0.02 0.01 0.01 0.01 0.01 0.01 0.01 0.01 0.01 0.01 0.00 0.00 0.00 0.00 0.00 0.01 0.02 0.04 0.05 0.07 0.08 0.12 0.14 0.17 0.28 0.19 0.07 0.04 0.03 0.03 0.02 0.02 0.02 0.01 0.01
0.14 0.10 0.11 0.13 0.18 0.18 0.11 0.06 0.02 0.02 0.02 0.02 0.01 0.01 0.01 0.01 0.02 0.02 0.02 0.01 0.01 0.01 0.01 0.01 0.03 0.04 0.05 0.06 0.07 0.09 0.11 0.10 0.12 0.12 0.07 0.05 0.04 0.03 0.03 0.02 0.01 0.01 0.01
0.13 0.10 0.09 0.12 0.12 0.20 0.16 0.10 0.05 0.03 0.03 0.04 0.03 0.02 0.02 0.01 0.01 0.02 0.02 0.01 0.02 0.01 0.02 0.02 0.03 0.03 0.04 0.05 0.06 0.08 0.07 0.08 0.10 0.06 0.07 0.05 0.05 0.04 0.03 0.02 0.02 0.01 0.01
0.08 0.09 0.09 0.11 0.11 0.18 0.21 0.14 0.10 0.08 0.07 0.05 0.04 0.03 0.03 0.02 0.02 0.02 0.01 0.01 0.01 0.02 0.02 0.03 0.03 0.03 0.03 0.03 0.04 0.05 0.05 0.07 0.10 0.06 0.03 0.03 0.02 0.03 0.03 0.03 0.04 0.05 0.04
0.06 0.08 0.09 0.09 0.12 0.13 0.18 0.17 0.18 0.14 0.09 0.06 0.06 0.05 0.04 0.04 0.02 0.02 0.01 0.01 0.01 0.02 0.03 0.02 0.03 0.03 0.03 0.03 0.03 0.03 0.04 0.06 0.06 0.04 0.02 0.02 0.01 0.01 0.02 0.04 0.04 0.05 0.06
0.08 0.09 0.09 0.10 0.12 0.12 0.15 0.18 0.20 0.18 0.14 0.11 0.09 0.08 0.06 0.06 0.04 0.03 0.01 0.02 0.02 0.02 0.03 0.03 0.03 0.03 0.03 0.03 0.03 0.02 0.04 0.06 0.05 0.03 0.03 0.02 0.01 0.01 0.01 0.02 0.04 0.04 0.04
0.11 0.11 0.10 0.11 0.14 0.15 0.18 0.20 0.21 0.22 0.18 0.16 0.15 0.08 0.07 0.07 0.05 0.05 0.04 0.03 0.02 0.02 0.03 0.03 0.03 0.02 0.02 0.02 0.03 0.03 0.03 0.05 0.04 0.04 0.05 0.05 0.03 0.02 0.02 0.02 0.01 0.02 0.04
0.13 0.14 0.15 0.12 0.13 0.15 0.16 0.17 0.20 0.18 0.16 0.15 0.13 0.08 0.06 0.07 0.06 0.06 0.06 0.04 0.02 0.02 0.02 0.02 0.02 0.01 0.01 0.01 0.02 0.03 0.03 0.03 0.04 0.04 0.05 0.06 0.08 0.04 0.04 0.03 0.02 0.02 0.02
0.11 0.14 0.17 0.17 0.17 0.17 0.17 0.18 0.20 0.21 0.18 0.15 0.13 0.10 0.09 0.08 0.07 0.06 0.06 0.04 0.03 0.03 0.02 0.01 0.01 0.01 0.00 0.01 0.01 0.01 0.02 0.03 0.04 0.05 0.05 0.04 0.06 0.06 0.06 0.04 0.03 0.01 0.01
0.09 0.14 0.18 0.21 0.26 0.25 0.22 0.21 0.18 0.18 0.20 0.18 0.15 0.13 0.11 0.09 0.09 0.08 0.08 0.06 0.04 0.03 0.02 0.01 0.01 0.00 0.00 0.00 0.00 0.00 0.00 0.01 0.01 0.03 0.04 0.04 0.03 0.04 0.03 0.04 0.03 0.01 0.01
0.11 0.12 0.16 0.20 0.21 0.20 0.16 0.13 0.10 0.09 0.11 0.13 0.12 0.10 0.10 0.09 0.09 0.08 0.09 0.08 0.05 0.04 0.03 0.02 0.01 0.00 0.00 0.00 0.00 0.00 0.00 0.00 0.00 0.02 0.03 0.03 0.03 0.02 0.01 0.01 0.01 0.01 0.01
0.11 0.11 0.13 0.15 0.19 0.17 0.10 0.09 0.10 0.09 0.09 0.13 0.13 0.12 0.12 0.11 0.11 0.11 0.09 0.08 0.05 0.03 0.03 0.01 0.01 0.01 0.00 0.00 0.00 0.00 0.00 0.00 0.00 0.01 0.01 0.01 0.02 0.01 0.01 0.00 0.00 0.01 0.01
0.10 0.09 0.08 0.11 0.15 0.19 0.17 0.11 0.10 0.10 0.10 0.11 0.11 0.10 0.10 0.12 0.13 0.12 0.11 0.08 0.06 0.04 0.03 0.02 0.01 0.02 0.01 0.00 0.00 0.00 0.00 0.00 0.00 0.00 0.00 0.00 0.00 0.00 0.01 0.00 0.00 0.01 0.00
MSLP
1012.08 1011.71 1011.55 1011.63 1011.92 1012.35 1012.81 1013.19 1013.45 1013.56 1013.55 1013.50 1013.46 1013.50 1013.64 1013.85 1014.10 1014.34 1014.51 1014.61 1014.62 1014.59 1014.54 1014.53 1014.57 1014.67 1014.82 1014.99 1015.14 1015.27 1015.37 1015.43 1015.49 1015.57 1015.68 1015.82 1015.99 1016.17 1016.34 1016.48 1016.60 1016.70 1016.78
1011.66 1011.46 1011.45 1011.65 1012.02 1012.48 1012.94 1013.30 1013.53 1013.62 1013.62 1013.59 1013.60 1013.70 1013.88 1014.14 1014.42 1014.66 1014.83 1014.90 1014.90 1014.85 1014.81 1014.80 1014.85 1014.97 1015.12 1015.27 1015.41 1015.52 1015.59 1015.64 1015.69 1015.77 1015.89 1016.05 1016.24 1016.44 1016.62 1016.78 1016.90 1017.00 1017.08
1011.26 1011.21 1011.34 1011.64 1012.09 1012.58 1013.04 1013.40 1013.61 1013.71 1013.72 1013.73 1013.79 1013.93 1014.15 1014.43 1014.71 1014.93 1015.07 1015.12 1015.10 1015.05 1015.01 1015.03 1015.10 1015.23 1015.39 1015.55 1015.68 1015.77 1015.83 1015.87 1015.92 1016.01 1016.15 1016.32 1016.52 1016.73 1016.92 1017.07 1017.19 1017.29 1017.38
1010.96 1011.03 1011.26 1011.66 1012.16 1012.68 1013.14 1013.49 1013.71 1013.81 1013.85 1013.89 1013.99 1014.17 1014.42 1014.69 1014.95 1015.14 1015.24 1015.26 1015.22 1015.18 1015.16 1015.20 1015.31 1015.46 1015.64 1015.81 1015.94 1016.04 1016.09 1016.14 1016.21 1016.31 1016.46 1016.64 1016.85 1017.05 1017.22 1017.37 1017.49 1017.59 1017.68
1010.80 1010.96 1011.28 1011.73 1012.26 1012.79 1013.25 1013.59 1013.80 1013.91 1013.98 1014.06 1014.19 1014.39 1014.64 1014.90 1015.12 1015.27 1015.34 1015.33 1015.29 1015.25 1015.27 1015.35 1015.50 1015.69 1015.89 1016.08 1016.22 1016.32 1016.39 1016.45 1016.54 1016.66 1016.82 1017.01 1017.21 1017.39 1017.55 1017.67 1017.78 1017.87 1017.98
1010.81 1011.03 1011.40 1011.88 1012.41 1012.93 1013.36 1013.68 1013.88 1013.99 1014.08 1014.18 1014.34 1014.56 1014.81 1015.05 1015.24 1015.35 1015.39 1015.37 1015.34 1015.33 1015.38 1015.50 1015.69 1015.92 1016.15 1016.34 1016.50 1016.61 1016.70 1016.79 1016.90 1017.04 1017.22 1017.41 1017.60 1017.76 1017.88 1017.97 1018.05 1018.15 1018.26
1010.96 1011.23 1011.62 1012.10 1012.61 1013.09 1013.48 1013.75 1013.92 1014.04 1014.13 1014.26 1014.45 1014.68 1014.93 1015.15 1015.33 1015.42 1015.44 1015.43 1015.41 1015.44 1015.53 1015.69 1015.92 1016.17 1016.41 1016.61 1016.77 1016.89 1017.00 1017.11 1017.25 1017.42 1017.62 1017.81 1017.98 1018.12 1018.21 1018.26 1018.32 1018.39 1018.51
1011.20 1011.50 1011.89 1012.37 1012.84 1013.26 1013.58 1013.81 1013.94 1014.04 1014.15 1014.30 1014.51 1014.76 1015.02 1015.25 1015.42 1015.51 1015.54 1015.54 1015.55 1015.61 1015.73 1015.93 1016.17 1016.43 1016.67 1016.87 1017.02 1017.15 1017.27 1017.40 1017.57 1017.77 1017.99 1018.19 1018.35 1018.46 1018.52 1018.54 1018.56 1018.62 1018.73
1011.45 1011.77 1012.18 1012.63 1013.06 1013.42 1013.68 1013.84 1013.94 1014.03 1014.14 1014.32 1014.56 1014.84 1015.13 1015.37 1015.56 1015.66 1015.71 1015.73 1015.76 1015.84 1015.99 1016.20 1016.44 1016.69 1016.91 1017.09 1017.24 1017.36 1017.49 1017.65 1017.84 1018.07 1018.30 1018.52 1018.68 1018.77 1018.81 1018.81 1018.80 1018.83 1018.93
1011.61 1011.98 1012.41 1012.86 1013.25 1013.56 1013.76 1013.87 1013.94 1014.01 1014.14 1014.34 1014.62 1014.94 1015.26 1015.54 1015.74 1015.87 1015.93 1015.97 1016.02 1016.12 1016.28 1016.48 1016.71 1016.93 1017.13 1017.28 1017.41 1017.53 1017.66 1017.83 1018.05 1018.31 1018.56 1018.79 1018.96 1019.06 1019.08 1019.07 1019.05 1019.06 1019.14
1011.63 1012.07 1012.54 1013.00 1013.37 1013.64 1013.80 1013.88 1013.94 1014.01 1014.16 1014.40 1014.72 1015.07 1015.43 1015.73 1015.96 1016.11 1016.19 1016.25 1016.31 1016.41 1016.55 1016.74 1016.94 1017.14 1017.31 1017.44 1017.55 1017.66 1017.80 1017.99 1018.22 1018.49 1018.77 1019.01 1019.20 1019.31 1019.34 1019.33 1019.30 1019.31 1019.37
1011.47 1011.99 1012.53 1013.01 1013.39 1013.66 1013.80 1013.88 1013.94 1014.03 1014.21 1014.49 1014.84 1015.23 1015.61 1015.94 1016.19 1016.35 1016.44 1016.50 1016.57 1016.66 1016.79 1016.96 1017.14 1017.31 1017.46 1017.58 1017.68 1017.79 1017.93 1018.13 1018.37 1018.65 1018.94 1019.19 1019.39 1019.52 1019.58 1019.59 1019.58 1019.58 1019.64
1011.14 1011.75 1012.36 1012.89 1013.30 1013.57 1013.74 1013.83 1013.92 1014.05 1014.27 1014.58 1014.97 1015.38 1015.78 1016.12 1016.37 1016.54 1016.64 1016.70 1016.76 1016.85 1016.97 1017.13 1017.29 1017.45 1017.59 1017.71 1017.82 1017.94 1018.09 1018.28 1018.52 1018.80 1019.08 1019.34 1019.55 1019.69 1019.78 1019.82 1019.85 1019.87 1019.93
1010.66 1011.36 1012.03 1012.61 1013.06 1013.38 1013.59 1013.73 1013.86 1014.04 1014.30 1014.65 1015.05 1015.48 1015.88 1016.21 1016.47 1016.64 1016.74 1016.81 1016.88 1016.97 1017.09 1017.25 1017.41 1017.57 1017.73 1017.86 1017.99 1018.12 1018.28 1018.47 1018.70 1018.95 1019.21 1019.45 1019.65 1019.81 1019.93 1020.01 1020.08 1020.15 1020.22
1010.12 1010.88 1011.60 1012.21 1012.71 1013.07 1013.33 1013.54 1013.74 1013.98 1014.28 1014.65 1015.06 1015.48 1015.87 1016.20 1016.45 1016.63 1016.74 1016.83 1016.92 1017.03 1017.17 1017.33 1017.52 1017.70 1017.88 1018.04 1018.20 1018.35 1018.52 1018.70 1018.90 1019.12 1019.33 1019.53 1019.72 1019.88 1020.01 1020.13 1020.25 1020.36 1020.47
1009.58 1010.36 1011.09 1011.73 1012.25 1012.67 1012.99 1013.27 1013.54 1013.84 1014.18 1014.56 1014.97 1015.38 1015.75 1016.06 1016.31 1016.50 1016.65 1016.78 1016.91 1017.05 1017.23 1017.42 1017.63 1017.85 1018.05 1018.25 1018.44 1018.62 1018.79 1018.96 1019.13 1019.29 1019.45 1019.60 1019.74 1019.88 1020.02 1020.17 1020.32 1020.48 1020.62
1009.13 1009.88 1010.58 1011.21 1011.75 1012.21 1012.60 1012.95 1013.29 1013.64 1014.01 1014.40 1014.79 1015.17 1015.52 1015.82 1016.08 1016.30 1016.49 1016.68 1016.87 1017.07 1017.29 1017.53 1017.77 1018.01 1018.25 1018.48 1018.70 1018.90 1019.08 1019.24 1019.37 1019.48 1019.57 1019.65 1019.73 1019.83 1019.96 1020.12 1020.30 1020.49 1020.68
1008.81 1009.48 1010.13 1010.72 1011.26 1011.75 1012.20 1012.61 1013.02 1013.42 1013.81 1014.19 1014.56 1014.90 1015.22 1015.52 1015.79 1016.06 1016.31 1016.57 1016.84 1017.11 1017.38 1017.65 1017.92 1018.19 1018.45 1018.70 1018.94 1019.17 1019.36 1019.51 1019.61 1019.67 1019.70 1019.71 1019.72 1019.77 1019.86 1020.01 1020.20 1020.42 1020.63
1008.64 1009.21 1009.77 1010.32 1010.84 1011.35 1011.84 1012.32 1012.78 1013.22 1013.62 1013.98 1014.32 1014.62 1014.91 1015.20 1015.50 1015.81 1016.14 1016.49 1016.83 1017.17 1017.49 1017.80 1018.09 1018.36 1018.63 1018.90 1019.15 1019.39 1019.60 1019.75 1019.84 1019.87 1019.85 1019.80 1019.75 1019.73 1019.77 1019.89 1020.06 1020.28 1020.51
1008.61 1009.07 1009.54 1010.01 1010.52 1011.04 1011.57 1012.11 1012.62 1013.08 1013.48 1013.82 1014.12 1014.38 1014.64 1014.92 1015.23 1015.60 1016.00 1016.43 1016.85 1017.25 1017.61 1017.94 1018.23 1018.50 1018.76 1019.03 1019.30 1019.56 1019.79 1019.96 1020.06 1020.08 1020.03 1019.94 1019.83 1019.75 1019.73 1019.79 1019.93 1020.13 1020.34
1008.67 1009.03 1009.40 1009.82 1010.30 1010.84 1011.41 1011.99 1012.54 1013.03 1013.43 1013.74 1013.99 1014.20 1014.43 1014.69 1015.03 1015.43 1015.89 1016.39 1016.87 1017.32 1017.71 1018.05 1018.33 1018.58 1018.83 1019.09 1019.37 1019.65 1019.92 1020.13 1020.26 1020.30 1020.25 1020.13 1019.97 1019.84 1019.75 1019.75 1019.83 1019.98 1020.17
1008.77 1009.03 1009.33 1009.71 1010.18 1010.73 1011.33 1011.95 1012.53 1013.04 1013.43 1013.72 1013.93 1014.10 1014.29 1014.54 1014.87 1015.30 1015.81 1016.35 1016.87 1017.35 1017.76 1018.09 1018.35 1018.58 1018.82 1019.07 1019.37 1019.68 1019.98 1020.24 1020.43 1020.50 1020.47 1020.34 1020.17 1019.98 1019.83 1019.75 1019.77 1019.86 1020.01
1008.82 1009.03 1009.28 1009.63 1010.09 1010.65 1011.28 1011.94 1012.55 1013.07 1013.46 1013.73 1013.91 1014.05 1014.20 1014.42 1014.75 1015.19 1015.71 1016.27 1016.82 1017.32 1017.72 1018.04 1018.29 1018.50 1018.72 1018.97 1019.28 1019.62 1019.98 1020.30 1020.54 1020.66 1020.66 1020.55 1020.36 1020.14 1019.93 1019.78 1019.72 1019.74 1019.84
1008.79 1008.97 1009.19 1009.52 1009.97 1010.54 1011.20 1011.87 1012.51 1013.04 1013.45 1013.71 1013.87 1013.98 1014.12 1014.32 1014.63 1015.06 1015.58 1016.15 1016.70 1017.19 1017.59 1017.90 1018.13 1018.33 1018.55 1018.81 1019.13 1019.50 1019.90 1020.27 1020.57 1020.74 1020.78 1020.69 1020.50 1020.26 1020.00 1019.79 1019.66 1019.61 1019.64
1008.66 1008.83 1009.04 1009.35 1009.79 1010.35 1011.00 1011.69 1012.34 1012.89 1013.31 1013.59 1013.76 1013.87 1013.99 1014.18 1014.48 1014.90 1015.40 1015.95 1016.49 1016.97 1017.37 1017.67 1017.90 1018.10 1018.32 1018.58 1018.92 1019.32 1019.75 1020.16 1020.50 1020.71 1020.79 1020.72 1020.54 1020.28 1020.00 1019.74 1019.54 1019.43 1019.40
1008.45 1008.62 1008.81 1009.09 1009.50 1010.03 1010.66 1011.34 1012.00 1012.57 1013.01 1013.32 1013.52 1013.66 1013.80 1014.00 1014.29 1014.69 1015.17 1015.70 1016.22 1016.69 1017.08 1017.38 1017.61 1017.82 1018.04 1018.32 1018.67 1019.08 1019.52 1019.95 1020.31 1020.55 1020.65 1020.61 1020.44 1020.18 1019.89 1019.60 1019.37 1019.21 1019.12
Thickness
5792 5793 5791 5790 5788 5786 5785 5784 5782 5781 5781 5780 5778 5777 5776 5774 5772 5771 5769 5767 5766 5764 5763 5761 5760 5759 5758 5757 5755 5754 5753 5752 5751 5749 5748 5747 5745 5744 5743 5741 5740 5738 5737
5799 5795 5792 5790 5788 5786 5784 5783 5781 5780 5779 5778 5777 5776 5774 5773 5771 5769 5768 5766 5765 5763 5762 5760 5759 5758 5756 5755 5754 5752 5751 5750 5749 5748 5747 5746 5744 5743 5741 5740 5739 5737 5736
5800 5796 5792 5790 5787 5785 5783 5782 5780 5779 5778 5777 5776 5775 5773 5772 5770 5768 5767 5765 5763 5762 5760 5759 5757 5756 5755 5753 5752 5751 5749 5748 5747 5746 5745 5744 5742 5741 5740 5739 5737 5736 5735
5800 5795 5792 5789 5787 5785 5783 5781 5780 5778 5777 5776 5775 5774 5772 5771 5769 5768 5766 5764 5762 5761 5759 5757 5756 5755 5753 5751 5750 5749 5747 5746 5745 5744 5743 5742 5741 5740 5739 5737 5736 5735 5734
5798 5794 5791 5789 5786 5784 5782 5780 5779 5777 5776 5775 5774 5773 5772 5770 5769 5767 5765 5763 5761 5760 5758 5756 5755 5753 5751 5750 5748 5747 5746 5745 5744 5743 5742 5741 5740 5738 5737 5736 5735 5734 5733
5795 5792 5789 5787 5785 5783 5781 5779 5778 5776 5775 5774 5773 5772 5771 5769 5768 5766 5764 5762 5760 5759 5757 5755 5753 5752 5750 5748 5747 5745 5744 5743 5742 5741 5740 5739 5738 5737 5736 5735 5733 5732 5731
5793 5790 5788 5786 5784 5782 5780 5778 5777 5775 5774 5773 5772 5771 5770 5768 5766 5765 5762 5760 5759 5757 5755 5754 5752 5750 5749 5747 5745 5744 5744 5743 5741 5739 5738 5737 5736 5735 5734 5733 5732 5731 5730
5793 5790 5787 5784 5782 5780 5779 5777 5776 5774 5773 5772 5771 5770 5768 5767 5765 5763 5761 5759 5758 5756 5754 5752 5751 5749 5747 5746 5744 5743 5743 5742 5739 5738 5737 5736 5735 5734 5733 5732 5731 5729 5728
5792 5789 5786 5783 5780 5779 5777 5776 5774 5773 5772 5771 5770 5768 5767 5765 5764 5762 5760 5758 5756 5755 5753 5751 5749 5748 5746 5744 5743 5743 5742 5740 5738 5737 5735 5734 5733 5732 5731 5730 5729 5728 5727
5788 5786 5784 5781 5779 5777 5775 5774 5773 5771 5770 5769 5768 5767 5766 5764 5762 5760 5759 5757 5755 5754 5752 5750 5749 5747 5746 5744 5743 5742 5741 5739 5737 5736 5734 5733 5732 5731 5730 5728 5727 5726 5726
5783 5782 5782 5779 5777 5775 5773 5772 5771 5769 5768 5767 5766 5765 5764 5762 5761 5759 5757 5756 5754 5753 5751 5749 5748 5747 5745 5744 5742 5741 5740 5738 5736 5734 5733 5732 5731 5730 5728 5727 5726 5725 5724
5780 5779 5779 5777 5774 5773 5772 5770 5769 5768 5766 5766 5765 5764 5762 5760 5759 5758 5756 5755 5753 5752 5750 5749 5747 5746 5745 5743 5741 5740 5738 5737 5735 5733 5731 5731 5729 5728 5727 5726 5724 5723 5722
5783 5781 5778 5775 5773 5772 5771 5768 5766 5766 5764 5763 5763 5762 5760 5758 5757 5756 5755 5754 5752 5751 5749 5748 5747 5745 5744 5743 5741 5739 5737 5735 5734 5732 5731 5730 5729 5727 5726 5725 5723 5722 5721
5782 5780 5779 5776 5773 5771 5769 5767 5765 5764 5762 5761 5761 5760 5759 5757 5756 5755 5754 5753 5752 5750 5748 5747 5746 5745 5744 5743 5742 5739 5737 5735 5734 5733 5731 5729 5728 5727 5725 5724 5722 5721 5720
5782 5779 5778 5776 5774 5771 5768 5766 5765 5764 5762 5761 5760 5759 5758 5757 5755 5754 5753 5752 5751 5750 5748 5747 5745 5745 5744 5743 5742 5740 5738 5736 5734 5733 5731 5729 5728 5726 5725 5724 5722 5721 5719
5784 5781 5778 5776 5774 5771 5767 5765 5764 5763 5761 5760 5759 5758 5757 5756 5755 5753 5752 5751 5750 5750 5748 5747 5746 5745 5744 5743 5742 5741 5738 5736 5734 5733 5731 5729 5727 5726 5725 5724 5722 5721 5719
5787 5783 5780 5776 5773 5770 5767 5765 5764 5763 5761 5759 5758 5757 5756 5755 5754 5753 5751 5751 5750 5749 5748 5747 5746 5745 5744 5743 5742 5741 5739 5737 5734 5733 5731 5730 5728 5727 5725 5724 5722 5721 5719
5787 5783 5780 5777 5771 5768 5766 5764 5763 5761 5760 5758 5757 5756 5755 5754 5753 5752 5751 5751 5751 5749 5748 5746 5745 5743 5742 5741 5740 5740 5738 5737 5735 5733 5731 5730 5729 5727 5726 5724 5722 5721 5719
5787 5782 5777 5775 5769 5766 5764 5763 5761 5759 5758 5757 5756 5754 5753 5753 5753 5752 5751 5751 5751 5749 5748 5747 5744 5743 5740 5740 5740 5739 5738 5737 5736 5734 5732 5731 5729 5728 5726 5725 5723 5721 5720
5785 5781 5776 5772 5768 5764 5761 5758 5756 5755 5754 5754 5754 5753 5752 5752 5752 5751 5750 5750 5750 5748 5747 5746 5744 5743 5741 5740 5740 5738 5737 5737 5736 5735 5734 5732 5730 5729 5727 5726 5724 5723 5721
5781 5776 5773 5768 5765 5762 5757 5754 5750 5749 5749 5750 5751 5751 5751 5751 5751 5751 5749 5749 5749 5747 5746 5745 5743 5741 5739 5739 5735 5731 5733 5735 5735 5735 5734 5733 5731 5730 5729 5727 5725 5724 5723
5778 5774 5770 5767 5763 5759 5757 5754 5751 5749 5748 5748 5748 5749 5749 5750 5750 5750 5748 5747 5747 5746 5744 5744 5743 5739 5738 5738 5733 5726 5722 5725 5730 5735 5734 5733 5733 5731 5730 5728 5727 5725 5724
5775 5772 5769 5765 5760 5757 5754 5751 5747 5744 5743 5742 5743 5745 5747 5748 5748 5748 5747 5747 5746 5746 5744 5743 5743 5740 5736 5736 5736 5730 5720 5717 5723 5729 5733 5734 5733 5732 5731 5730 5729 5727 5726
5773 5771 5767 5762 5758 5755 5753 5750 5745 5742 5740 5741 5742 5744 5745 5746 5747 5747 5746 5746 5746 5745 5744 5743 5743 5741 5738 5734 5734 5735 5733 5730 5723 5721 5727 5732 5734 5734 5733 5732 5731 5730 5728
5772 5769 5764 5760 5756 5754 5753 5750 5746 5743 5742 5741 5741 5741 5742 5744 5746 5746 5745 5745 5744 5744 5744 5743 5742 5741 5739 5736 5734 5733 5732 5731 5729 5723 5720 5725 5730 5733 5734 5734 5733 5731 5730
5769 5766 5762 5758 5755 5753 5751 5749 5746 5743 5741 5739 5738 5738 5739 5741 5742 5744 5744 5744 5744 5743 5743 5742 5741 5740 5739 5737 5735 5734 5731 5729 5727 5725 5721 5721 5723 5730 5734 5734 5733 5732 5731